Location: Oshawa
(43.9000°N, 78.8670°W)
Time: 13:26:43
(UTC-04:00)

Amateur Radio Satellites - All Passes

Search period start: 29 April 2017 12:56
Search period end: 30 April 2017 12:56
Location: Oshawa, 43.9000°N, 78.8670°W

Satellite Date Start Highest point End Downlink Frequencies (MHz)
Time Altitude Azimuth
Gurwin Techsat 1B 29 Apr 12:57:34 13:01:14 19° 61° (ENE) 13:04:56 435.225
AIST 2D 29 Apr 12:58:31 12:59:56 12° 269° (W) 13:01:20 435.315
POLYITAN 1 29 Apr 13:00:14 13:03:50 27° 264° (W) 13:07:28 437.675
SPROUT 29 Apr 13:03:57 13:07:40 29° 96° (E) 13:11:22 437.525
AO-85 29 Apr 13:05:06 13:09:19 66° 306° (NW) 13:13:21 145.980
BUGSAT 1 29 Apr 13:07:19 13:11:27 84° 255° (WSW) 13:15:33 437.445
QB50P2 29 Apr 13:07:26 13:10:42 22° 266° (W) 13:14:00 145.880/145.840
DX 1 29 Apr 13:07:40 13:09:35 13° 90° (E) 13:11:29 434.975-435.025
AO-7 29 Apr 13:09:31 13:12:33 12° 39° (NE) 13:15:36 .
BEESAT 3 29 Apr 13:25:24 13:29:06 40° 118° (ESE) 13:32:52 437.485
NANOSAT C BR1 29 Apr 13:27:00 13:29:39 16° 268° (W) 13:32:19 145.865
Tancredo 1 29 Apr 13:28:26 13:31:31 60° 29° (NNE) 13:34:34 437.200
BEESAT 2 29 Apr 13:32:19 13:35:06 19° 112° (ESE) 13:37:55 435.950
LO-87 29 Apr 13:45:46 13:46:44 11° 297° (WNW) 13:47:43 145.935 - 145.965
50 SAT 29 Apr 13:57:26 14:00:56 74° 102° (ESE) 14:04:22 437.505
VELOX 1 29 Apr 14:00:06 14:04:31 68° 286° (WNW) 14:08:52 145.980
ESTCUBE 1 29 Apr 14:01:10 14:04:37 22° 295° (WNW) 14:08:04 437.505/2401.250
UKube-1 29 Apr 14:02:47 14:06:43 34° 97° (E) 14:10:38 .
ITAMSAT 1 29 Apr 14:05:59 14:08:18 13° 57° (ENE) 14:10:36 435.822/435.867
Oscar 19 29 Apr 14:09:17 14:14:24 65° 258° (WSW) 14:19:35 437.125/150
ISS 29 Apr 14:13:16 14:16:31 73° 216° (SW) 14:19:46 437.550
SO-50 29 Apr 14:15:00 14:19:09 35° 46° (NE) 14:23:17 436.795
RS-15 29 Apr 14:27:48 14:39:10 39° 31° (NNE) 14:50:08 29.354- 29.394
Gurwin Techsat 1B 29 Apr 14:35:25 14:40:41 64° 258° (WSW) 14:45:59 435.225
YUBILEINY 29 Apr 14:36:05 14:43:35 30° 66° (ENE) 14:51:04 435.215
SPROUT 29 Apr 14:39:56 14:43:29 26° 293° (WNW) 14:47:01 437.525
DX 1 29 Apr 14:41:52 14:46:11 64° 287° (WNW) 14:50:28 434.975-435.025
AO-85 29 Apr 14:49:16 14:50:27 11° 326° (NW) 14:51:38 145.980
AO-7 29 Apr 14:55:30 15:03:19 48° 61° (ENE) 15:11:09 .
BEESAT 3 29 Apr 15:03:36 15:06:50 23° 316° (NW) 15:10:06 437.485
Tancredo 1 29 Apr 15:04:57 15:07:07 18° 225° (SW) 15:09:18 437.200
BEESAT 2 29 Apr 15:08:44 15:12:32 44° 310° (NW) 15:16:26 435.950
ITUPSAT 1 29 Apr 15:12:58 15:16:03 17° 92° (E) 15:19:08 437.325
MOZHAYETS 4 29 Apr 15:33:54 15:36:19 14° 90° (E) 15:38:41
UKube-1 29 Apr 15:39:07 15:42:35 24° 294° (WNW) 15:46:01 .
ITAMSAT 1 29 Apr 15:41:47 15:46:59 86° 73° (ENE) 15:52:11 435.822/435.867
SO-50 29 Apr 15:55:35 15:59:32 31° 245° (WSW) 16:03:29 436.795
BEESAT 29 Apr 16:06:41 16:11:23 58° 101° (E) 16:16:05 436.000
YUBILEINY 29 Apr 16:32:23 16:41:01 65° 268° (W) 16:49:41 435.215
CUBESAT XI-V 29 Apr 16:34:50 16:35:35 10° 87° (E) 16:36:20 437.345
RS-15 29 Apr 16:40:54 16:53:14 85° 238° (WSW) 17:04:57 29.354- 29.394
AO-7 29 Apr 16:48:26 16:56:09 42° 261° (W) 17:03:56 .
ITUPSAT 1 29 Apr 16:49:32 16:54:13 56° 288° (WNW) 16:58:54 437.325
KKS-1 29 Apr 16:59:15 17:02:17 18° 92° (E) 17:05:17 437.445
MOZHAYETS 4 29 Apr 17:09:18 17:13:53 64° 286° (WNW) 17:18:27
CUTE-I 29 Apr 17:14:48 17:18:06 17° 59° (ENE) 17:21:24 437.470
XW-2C 29 Apr 17:15:47 17:15:55 10° 62° (ENE) 17:16:01 145.795 - 145.815
LilacSat-2 29 Apr 17:17:21 17:18:35 11° 62° (ENE) 17:19:48 437.200
STARS 29 Apr 17:22:36 17:24:45 13° 90° (E) 17:26:54 437.465
DOVE 4 29 Apr 17:24:24 17:28:57 30° 67° (ENE) 17:33:23 437.250
ITAMSAT 1 29 Apr 17:25:10 17:27:06 12° 272° (W) 17:29:02 435.822/435.867
XW-2F 29 Apr 17:36:19 17:38:44 17° 66° (ENE) 17:41:11 145.980 - 146.000
NUDT-PHONESAT 29 Apr 17:38:18 17:40:19 14° 65° (ENE) 17:42:20 437.300
BEESAT 29 Apr 17:45:32 17:48:43 18° 299° (WNW) 17:51:54 436.000
CUBESAT XI-V 29 Apr 18:08:50 18:13:35 86° 284° (WNW) 18:18:18 437.345
HO-68 29 Apr 18:21:39 18:27:15 26° 56° (ENE) 18:32:52 435.675
XW-2D 29 Apr 18:26:42 18:30:24 70° 77° (ENE) 18:34:10 145.860 - 145.880
NO-84 29 Apr 18:31:23 18:34:29 23° 131° (SE) 18:37:22 435.350 FM
YUBILEINY 29 Apr 18:33:01 18:35:58 12° 289° (WNW) 18:38:54 435.215
XW-2B 29 Apr 18:33:42 18:37:27 83° 76° (ENE) 18:41:13 145.730 - 145.750
KKS-1 29 Apr 18:34:50 18:39:05 46° 289° (WNW) 18:43:18 437.445
KAITUO 1B 29 Apr 18:35:24 18:39:03 69° 75° (ENE) 18:42:46 145.475/437.950
O/OREOS (USA 219) 29 Apr 18:37:22 18:39:52 14° 49° (NE) 18:42:21 437.305
XW-2C 29 Apr 18:45:49 18:49:32 68° 259° (W) 18:53:18 145.795 - 145.815
LilacSat-2 29 Apr 18:48:39 18:52:21 60° 260° (W) 18:56:05 437.200
CUTE-I 29 Apr 18:52:11 18:57:31 76° 257° (WSW) 19:02:53 437.470
RS-15 29 Apr 18:55:15 19:03:50 24° 261° (W) 19:12:11 29.354- 29.394
STARS 29 Apr 18:57:11 19:01:29 60° 287° (WNW) 19:05:46 437.465
DOVE 4 29 Apr 19:01:35 19:06:29 38° 263° (W) 19:11:17 437.250
CUTE 1.7 + AOD 2 29 Apr 19:05:50 19:09:21 26° 68° (ENE) 19:12:55 437.475
XW-2F 29 Apr 19:09:09 19:12:36 36° 262° (W) 19:16:06 145.980 - 146.000
NUDT-PHONESAT 29 Apr 19:10:23 19:13:53 42° 262° (W) 19:17:23 437.300
CUBEBUG 2 29 Apr 19:11:08 19:13:35 15° 64° (ENE) 19:16:01 437.445
SEEDS 29 Apr 19:19:34 19:22:58 24° 67° (ENE) 19:26:24 437.485
ZACube-1 29 Apr 19:40:30 19:41:21 11° 60° (ENE) 19:42:12 437.345
AO-73 29 Apr 19:45:13 19:46:10 11° 61° (ENE) 19:47:08 145.935
CUBESAT XI-V 29 Apr 19:48:48 19:50:11 11° 302° (WNW) 19:51:34 437.345
AO-85 29 Apr 19:55:05 19:58:00 19° 42° (NE) 20:00:58 145.980
Oscar 11 29 Apr 19:55:41 19:57:33 13° 61° (ENE) 19:59:25 .
XW-2A 29 Apr 20:00:53 20:04:12 66° 259° (WSW) 20:07:32 145.665 - 145.685
STRAND 1 29 Apr 20:04:05 20:08:37 31° 96° (E) 20:13:08 437.568
HO-68 29 Apr 20:07:13 20:14:20 72° 256° (WSW) 20:21:32 435.675
NO-84 29 Apr 20:08:18 20:11:53 47° 326° (NNW) 20:15:10 435.350 FM
O/OREOS (USA 219) 29 Apr 20:15:17 20:19:53 79° 248° (WSW) 20:24:25 437.305
AAUSAT CUBESAT 2 29 Apr 20:16:38 20:20:37 48° 73° (ENE) 20:24:40 437.432
UWE-3 29 Apr 20:25:14 20:29:21 53° 73° (ENE) 20:33:25 435.000/436.395/437.385
M-CUBED/EXP-1 PRIME 29 Apr 20:29:00 20:32:32 28° 100° (E) 20:35:49 437.505
CUTE 1.7 + AOD 2 29 Apr 20:41:27 20:45:07 28° 265° (W) 20:48:49 437.475
CUBEBUG 2 29 Apr 20:45:34 20:49:48 54° 260° (W) 20:53:58 437.445
SEEDS 29 Apr 20:54:48 20:58:32 31° 264° (W) 21:02:18 437.485
ZACube-1 29 Apr 21:12:51 21:17:01 79° 258° (WSW) 21:21:11 437.345
AO-73 29 Apr 21:17:40 21:21:49 77° 258° (WSW) 21:25:58 145.935
Oscar 11 29 Apr 21:28:50 21:33:06 71° 258° (WSW) 21:37:26 .
AO-85 29 Apr 21:34:46 21:38:38 51° 240° (WSW) 21:42:40 145.980
BEESAT 3 29 Apr 21:40:44 21:44:32 38° 49° (NE) 21:48:17 437.485
STRAND 1 29 Apr 21:43:13 21:47:47 34° 293° (WNW) 21:52:21 437.568
BEESAT 2 29 Apr 21:47:44 21:50:56 21° 43° (NE) 21:54:05 435.950
NO-84 29 Apr 21:48:00 21:50:01 15° 345° (NNW) 21:51:56 435.350 FM
AAUSAT CUBESAT 2 29 Apr 21:53:54 21:56:21 15° 269° (W) 21:58:49 437.432
OBJECT BX 29 Apr 21:55:02 21:58:31 47° 73° (ENE) 22:02:02 145.990 - 145.960
HO-68 29 Apr 22:00:40 22:03:17 12° 275° (W) 22:05:54 435.675
PRISM 29 Apr 22:02:06 22:04:31 15° 92° (E) 22:06:54 437.425
M-CUBED/EXP-1 PRIME 29 Apr 22:03:26 22:06:52 26° 300° (WNW) 22:10:06 437.505
UNISAT 6 29 Apr 22:03:53 22:04:31 10° 89° (E) 22:05:09 437.425
UWE-3 29 Apr 22:03:58 22:06:08 14° 270° (W) 22:08:17 435.000/436.395/437.385
DELFI C3 29 Apr 22:04:40 22:08:40 86° 74° (ENE) 22:12:42 145.870
LO-87 29 Apr 22:47:43 22:50:48 27° 70° (ENE) 22:53:55 145.935 - 145.965
FO-29 29 Apr 22:58:58 23:03:44 34° 97° (E) 23:08:47 435.910
TIGRISAT 29 Apr 23:15:07 23:19:21 57° 101° (E) 23:23:38 435.000
BEESAT 3 29 Apr 23:18:47 23:21:54 22° 247° (WSW) 23:24:59 437.485
VELOX 1 29 Apr 23:24:17 23:26:41 14° 61° (ENE) 23:29:06 145.980
ESTCUBE 1 29 Apr 23:24:19 23:28:36 45° 71° (ENE) 23:32:56 437.505/2401.250
BEESAT 2 29 Apr 23:25:00 23:28:55 47° 241° (WSW) 23:32:47 435.950
NO-84 29 Apr 23:27:17 23:28:38 12° 7° (N) 23:29:58 435.350 FM
OBJECT BX 29 Apr 23:31:05 23:32:29 12° 270° (W) 23:33:53 145.990 - 145.960
PRISM 29 Apr 23:36:03 23:40:04 48° 288° (WNW) 23:44:01 437.425
UNISAT 6 29 Apr 23:37:25 23:41:43 75° 286° (WNW) 23:46:04 437.425
SPROUT 29 Apr 23:58:34 00:02:09 27° 68° (ENE) 00:05:46 437.525
DUCHIFAT 1 30 Apr 00:02:14 00:03:44 12° 90° (E) 00:05:14 145.980
EO-79 30 Apr 00:03:40 00:06:09 15° 91° (E) 00:08:37 145.935-145.965
DX 1 30 Apr 00:04:28 00:06:53 15° 61° (ENE) 00:09:20 434.975-435.025
AIST 2D 30 Apr 00:19:47 00:23:10 42° 98° (E) 00:26:33 435.315
LO-87 30 Apr 00:21:31 00:24:15 20° 266° (W) 00:27:00 145.935 - 145.965
50 SAT 30 Apr 00:31:21 00:34:29 32° 71° (ENE) 00:37:39 437.505
POLYITAN 1 30 Apr 00:42:51 00:46:50 40° 98° (E) 00:50:48 437.675
FO-29 30 Apr 00:44:13 00:48:50 32° 293° (WNW) 00:53:43 435.910
BUGSAT 1 30 Apr 00:49:34 00:51:03 12° 90° (E) 00:52:32 437.445
QB50P2 30 Apr 00:49:35 00:53:42 52° 100° (E) 00:57:49 145.880/145.840
TIGRISAT 30 Apr 00:53:10 00:55:36 15° 297° (WNW) 00:58:03 435.000
VELOX 1 30 Apr 00:58:11 01:02:36 66° 258° (WSW) 01:07:04 145.980
UKube-1 30 Apr 00:58:19 01:02:14 34° 69° (ENE) 01:06:11 .
ESTCUBE 1 30 Apr 01:02:25 01:05:37 19° 268° (W) 01:08:51 437.505/2401.250
NO-84 30 Apr 01:04:14 01:06:59 30° 29° (NNE) 01:09:35 435.350 FM
NANOSAT C BR1 30 Apr 01:07:49 01:12:00 70° 102° (ESE) 01:16:11 145.865
PCSat 30 Apr 01:15:35 01:19:38 22° 107° (ESE) 01:23:41 145.827
SPROUT 30 Apr 01:34:17 01:38:00 28° 264° (W) 01:41:42 437.525
DUCHIFAT 1 30 Apr 01:35:41 01:39:49 63° 285° (WNW) 01:43:56 145.980
EO-79 30 Apr 01:38:07 01:42:11 49° 288° (WNW) 01:46:14 145.935-145.965
DX 1 30 Apr 01:38:14 01:42:34 62° 258° (WSW) 01:46:56 434.975-435.025
BEESAT 30 Apr 01:41:16 01:41:57 10° 56° (ENE) 01:42:36 436.000
AIST 2D 30 Apr 01:54:17 01:56:02 13° 295° (WNW) 01:57:45 435.315
50 SAT 30 Apr 02:05:20 02:07:30 16° 267° (W) 02:09:42 437.505
POLYITAN 1 30 Apr 02:19:20 02:22:21 19° 295° (WNW) 02:25:21 437.675
Oscar 19 30 Apr 02:19:29 02:24:23 40° 98° (E) 02:29:14 437.125/150
ITUPSAT 1 30 Apr 02:20:49 02:24:35 24° 64° (ENE) 02:28:22 437.325
BUGSAT 1 30 Apr 02:22:51 02:26:47 58° 287° (WNW) 02:30:43 437.445
QB50P2 30 Apr 02:26:34 02:29:05 16° 297° (WNW) 02:31:36 145.880/145.840
UKube-1 30 Apr 02:34:53 02:38:20 23° 265° (W) 02:41:47 .
MOZHAYETS 4 30 Apr 02:37:11 02:40:01 17° 62° (ENE) 02:42:53
NO-84 30 Apr 02:41:55 02:44:23 25° 228° (SW) 02:46:47 435.350 FM
NANOSAT C BR1 30 Apr 02:45:30 02:47:09 12° 299° (WNW) 02:48:47 145.865
Gurwin Techsat 1B 30 Apr 02:50:12 02:55:19 45° 99° (E) 03:00:23 435.225
PCSat 30 Apr 02:57:14 03:02:34 58° 305° (NW) 03:07:58 145.827
AO-7 30 Apr 02:59:23 03:01:19 11° 85° (E) 03:03:14 .
BEESAT 30 Apr 03:14:09 03:18:53 78° 74° (ENE) 03:23:39 436.000
CUBESAT XI-V 30 Apr 03:38:46 03:40:59 13° 60° (ENE) 03:43:15 437.345
YUBILEINY 30 Apr 03:39:37 03:46:54 32° 83° (E) 03:54:14 435.215
ITAMSAT 1 30 Apr 03:53:40 03:58:02 27° 95° (E) 04:02:22 435.822/435.867
ITUPSAT 1 30 Apr 03:57:43 04:02:11 41° 262° (W) 04:06:41 437.325
KKS-1 30 Apr 03:58:33 04:01:53 21° 64° (ENE) 04:05:12 437.445
Oscar 19 30 Apr 03:59:07 04:03:31 28° 295° (WNW) 04:07:53 437.125/150
MOZHAYETS 4 30 Apr 04:12:15 04:16:43 57° 259° (W) 04:21:14
STARS 30 Apr 04:20:27 04:23:08 16° 62° (ENE) 04:25:47 437.465
Gurwin Techsat 1B 30 Apr 04:30:40 04:35:00 26° 296° (WNW) 04:39:19 435.225
PCSat 30 Apr 04:44:27 04:47:10 14° 327° (NNW) 04:49:53 145.827
AO-7 30 Apr 04:47:27 04:55:43 62° 104° (ESE) 05:03:56 .
BEESAT 30 Apr 04:55:28 04:57:13 12° 271° (W) 04:58:58 436.000
RS-15 30 Apr 05:03:16 05:06:27 11° 91° (E) 05:09:39 29.354- 29.394
CUBESAT XI-V 30 Apr 05:13:04 05:17:43 77° 256° (WSW) 05:22:26 437.345
ITAMSAT 1 30 Apr 05:32:47 05:37:37 40° 292° (WNW) 05:42:25 435.822/435.867
KKS-1 30 Apr 05:33:54 05:38:09 42° 261° (W) 05:42:25 437.445
YUBILEINY 30 Apr 05:34:38 05:43:10 59° 283° (WNW) 05:51:47 435.215
STARS 30 Apr 05:54:41 05:59:01 57° 259° (WSW) 06:03:22 437.465
SO-50 30 Apr 06:10:09 06:14:42 59° 121° (ESE) 06:19:11 436.795
XW-2C 30 Apr 06:18:58 06:20:12 11° 90° (E) 06:21:26 145.795 - 145.815
LilacSat-2 30 Apr 06:21:49 06:23:40 13° 91° (E) 06:25:32 437.200
XW-2F 30 Apr 06:40:10 06:42:59 19° 93° (E) 06:45:47 145.980 - 146.000
NUDT-PHONESAT 30 Apr 06:40:12 06:42:31 16° 92° (E) 06:44:48 437.300
AO-7 30 Apr 06:40:50 06:48:02 34° 304° (NW) 06:55:15 .
ISS 30 Apr 06:55:12 06:57:15 16° 133° (SE) 06:59:18 437.550
DOVE 4 30 Apr 06:59:10 07:03:39 56° 100° (E) 07:07:52 437.250
RS-15 30 Apr 07:04:20 07:15:55 57° 113° (ESE) 07:27:50 29.354- 29.394
CUTE-I 30 Apr 07:07:57 07:12:54 38° 98° (E) 07:17:49 437.470
M-CUBED/EXP-1 PRIME 30 Apr 07:14:36 07:19:06 50° 66° (ENE) 07:23:36 437.505
STRAND 1 30 Apr 07:21:07 07:26:03 52° 71° (ENE) 07:31:00 437.568
XW-2D 30 Apr 07:31:44 07:35:34 88° 101° (ESE) 07:39:24 145.860 - 145.880
HO-68 30 Apr 07:34:25 07:39:40 21° 91° (E) 07:44:51 435.675
Tancredo 1 30 Apr 07:38:31 07:41:31 50° 143° (SE) 07:44:32 437.200
YUBILEINY 30 Apr 07:38:47 07:42:12 13° 308° (NW) 07:45:40 435.215
XW-2B 30 Apr 07:38:48 07:42:37 80° 284° (WNW) 07:46:27 145.730 - 145.750
KAITUO 1B 30 Apr 07:38:56 07:42:43 83° 101° (E) 07:46:31 145.475/437.950
XW-2C 30 Apr 07:50:58 07:54:43 55° 286° (WNW) 07:58:28 145.795 - 145.815
SO-50 30 Apr 07:51:54 07:55:30 22° 319° (NW) 07:59:06 436.795
LilacSat-2 30 Apr 07:54:30 07:58:13 48° 287° (WNW) 08:01:56 437.200
NUDT-PHONESAT 30 Apr 08:13:06 08:16:34 37° 288° (WNW) 08:20:02 437.300
XW-2F 30 Apr 08:13:47 08:17:10 31° 290° (WNW) 08:20:34 145.980 - 146.000
CUTE 1.7 + AOD 2 30 Apr 08:24:08 08:28:15 42° 98° (E) 08:32:19 437.475
ISS 30 Apr 08:30:07 08:33:23 73° 330° (NNW) 08:36:39 437.550
CUBEBUG 2 30 Apr 08:34:56 08:38:26 25° 95° (E) 08:41:59 437.445
SEEDS 30 Apr 08:36:36 08:40:35 38° 97° (E) 08:44:34 437.485
DOVE 4 30 Apr 08:38:06 08:40:50 16° 299° (WNW) 08:43:30 437.250
CUTE-I 30 Apr 08:48:15 08:52:48 30° 295° (WNW) 08:57:21 437.470
M-CUBED/EXP-1 PRIME 30 Apr 08:50:18 08:53:43 20° 262° (W) 08:57:09 437.505
PRISM 30 Apr 08:53:04 08:55:19 14° 62° (ENE) 08:57:35 437.425
XW-2A 30 Apr 08:53:52 08:57:14 76° 283° (WNW) 09:00:35 145.665 - 145.685
ZACube-1 30 Apr 09:00:17 09:03:10 18° 92° (E) 09:06:05 437.345
STRAND 1 30 Apr 09:01:47 09:05:31 20° 268° (W) 09:09:17 437.568
UNISAT 6 30 Apr 09:03:50 09:05:29 12° 61° (ENE) 09:07:09 437.425
AO-73 30 Apr 09:04:44 09:07:38 18° 92° (E) 09:10:34 145.935
FO-29 30 Apr 09:14:29 09:18:23 19° 61° (ENE) 09:22:04 435.910
Tancredo 1 30 Apr 09:14:44 09:17:32 30° 341° (NNW) 09:20:19 437.200
Oscar 11 30 Apr 09:15:19 09:18:28 19° 92° (E) 09:21:37 .
RS-15 30 Apr 09:16:49 09:28:40 54° 318° (NW) 09:40:47 29.354- 29.394
HO-68 30 Apr 09:20:51 09:28:04 77° 289° (WNW) 09:35:15 435.675
AAUSAT CUBESAT 2 30 Apr 09:32:22 09:36:34 76° 101° (E) 09:40:45 437.432
UWE-3 30 Apr 09:49:11 09:53:25 80° 282° (WNW) 09:57:43 435.000/436.395/437.385
CUTE 1.7 + AOD 2 30 Apr 10:00:43 10:03:46 19° 295° (WNW) 10:06:49 437.475
PCSat 30 Apr 10:00:44 10:05:23 27° 45° (NE) 10:09:59 145.827
ISS 30 Apr 10:07:34 10:10:17 23° 349° (N) 10:12:59 437.550
CUBEBUG 2 30 Apr 10:11:26 10:15:03 29° 291° (WNW) 10:18:42 437.445
SEEDS 30 Apr 10:12:50 10:16:02 21° 294° (WNW) 10:19:14 437.485
TIGRISAT 30 Apr 10:14:53 10:19:09 58° 73° (ENE) 10:23:21 435.000
PRISM 30 Apr 10:26:02 10:30:08 58° 259° (W) 10:34:15 437.425
O/OREOS (USA 219) 30 Apr 10:28:33 10:33:08 87° 290° (WNW) 10:37:46 437.305
ZACube-1 30 Apr 10:35:37 10:39:39 43° 288° (WNW) 10:43:45 437.345
UNISAT 6 30 Apr 10:37:17 10:41:37 74° 257° (WSW) 10:45:56 437.425
AO-73 30 Apr 10:40:02 10:44:03 43° 288° (WNW) 10:48:09 145.935
Oscar 11 30 Apr 10:50:41 10:54:46 41° 289° (WNW) 10:58:51 .
Tancredo 1 30 Apr 10:51:46 10:54:04 19° 1° (N) 10:56:24 437.200
OBJECT BX 30 Apr 10:55:50 10:59:26 51° 100° (E) 11:03:01 145.990 - 145.960
DUCHIFAT 1 30 Apr 10:55:56 10:57:21 12° 61° (ENE) 10:58:46 145.980
AIST 2D 30 Apr 10:56:03 10:58:36 19° 68° (ENE) 11:01:10 435.315
FO-29 30 Apr 10:56:58 11:03:04 70° 257° (WSW) 11:08:33 435.910
EO-79 30 Apr 10:57:48 11:00:09 15° 63° (ENE) 11:02:31 145.935-145.965
AAUSAT CUBESAT 2 30 Apr 11:10:06 11:11:25 11° 299° (WNW) 11:12:43 437.432
HO-68 30 Apr 11:10:19 11:14:40 17° 309° (NW) 11:19:01 435.675
DELFI C3 30 Apr 11:14:57 11:18:57 69° 285° (WNW) 11:22:55 145.870
RS-15 30 Apr 11:34:39 11:44:55 29° 350° (N) 11:55:07 29.354- 29.394
POLYITAN 1 30 Apr 11:36:33 11:40:23 36° 70° (ENE) 11:44:15 437.675
BUGSAT 1 30 Apr 11:41:14 11:42:33 11° 61° (ENE) 11:43:53 437.445
QB50P2 30 Apr 11:43:11 11:47:13 46° 72° (ENE) 11:51:15 145.880/145.840
PCSat 30 Apr 11:43:47 11:49:05 54° 245° (WSW) 11:54:20 145.827
ISS 30 Apr 11:44:51 11:47:31 23° 10° (N) 11:50:11 437.550
LO-87 30 Apr 11:46:25 11:49:29 26° 96° (E) 11:52:31 145.935 - 145.965
AO-85 30 Apr 11:50:31 11:54:19 32° 117° (ESE) 11:57:58 145.980
TIGRISAT 30 Apr 11:54:06 11:56:11 13° 270° (W) 11:58:17 435.000
NANOSAT C BR1 30 Apr 12:00:47 12:04:55 60° 73° (ENE) 12:09:04 145.865
O/OREOS (USA 219) 30 Apr 12:11:18 12:13:17 12° 313° (NW) 12:15:16 437.305
Tancredo 1 30 Apr 12:27:43 12:30:36 33° 21° (NNE) 12:33:27 437.200
DUCHIFAT 1 30 Apr 12:28:15 12:32:26 74° 258° (WSW) 12:36:37 145.980
AIST 2D 30 Apr 12:28:43 12:31:40 26° 264° (W) 12:34:38 435.315
OBJECT BX 30 Apr 12:31:09 12:32:41 12° 296° (WNW) 12:34:13 145.990 - 145.960
EO-79 30 Apr 12:31:20 12:35:28 56° 259° (W) 12:39:38 145.935-145.965
Gurwin Techsat 1B 30 Apr 12:36:31 12:38:46 13° 56° (NE) 12:41:02 435.225
VELOX 1 30 Apr 12:47:27 12:50:48 21° 93° (E) 12:54:06 145.980
